Temp_Advection
nan nan nan nan nan nan nan nan nan nan nan nan nan nan nan nan nan nan nan nan nan nan nan nan nan nan nan nan nan nan nan nan nan nan nan nan nan nan nan nan nan nan nan
nan 1 0 0 1 1 2 2 1 0 -0 0 0 1 0 0 0 0 0 0 0 0 0 0 0 0 0 0 0 0 0 0 0 -1 1 1 0 0 0 -0 -1 -0 nan
nan 0 1 2 2 2 2 1 0 0 0 0 0 0 0 0 0 0 0 0 0 0 0 0 0 0 0 0 0 0 0 0 0 0 0 0 -0 0 0 -0 -1 -1 nan
nan 2 3 2 2 1 1 1 0 1 0 0 0 0 0 0 0 0 0 0 0 0 1 0 0 0 0 1 0 0 0 0 0 0 0 0 0 0 0 0 -0 -0 nan
nan 2 2 1 0 0 1 0 1 0 0 0 0 0 0 0 0 0 0 0 0 0 0 1 1 0 0 1 1 0 0 0 0 0 0 0 0 0 0 0 0 -0 nan
nan 1 1 0 1 1 0 0 0 0 0 0 -0 -0 0 0 0 0 0 0 0 0 0 1 1 0 0 0 1 0 0 0 0 0 0 0 0 1 1 0 -0 -0 nan
nan 1 1 1 1 0 0 0 0 -0 -0 0 0 0 0 0 0 0 0 0 0 1 1 1 0 0 0 0 0 0 0 0 1 1 0 0 1 0 0 0 -0 -0 nan
nan 1 0 0 0 0 0 0 -0 -0 0 -0 0 0 -0 0 0 0 -0 0 0 0 1 1 1 0 0 1 1 0 0 0 0 1 1 1 0 0 1 0 0 -0 nan
nan 0 0 0 0 -0 0 0 0 -0 0 -0 0 0 -0 -0 0 0 -0 -0 -0 -0 0 1 1 1 1 1 1 0 0 0 0 1 1 0 0 0 1 0 -0 -0 nan
nan 0 0 0 0 0 -0 0 -0 0 0 0 0 0 0 -0 -0 -0 -0 -0 -0 -0 -0 -0 1 1 1 1 1 0 -0 0 1 0 1 0 0 0 0 0 0 -0 nan
nan 0 0 0 0 0 0 -0 -0 0 0 0 0 0 0 0 0 0 0 0 0 0 -1 -1 -1 1 1 1 0 0 -0 0 1 1 1 0 0 1 0 0 0 0 nan
nan 0 0 0 0 -0 -0 0 0 0 -0 -0 -0 0 0 -1 -1 -1 -0 -0 0 -0 -0 -0 -1 -1 1 1 0 0 0 0 0 1 1 0 0 0 0 0 0 0 nan
nan 0 0 0 0 0 0 0 -0 -0 -0 -0 -1 -2 -0 -0 -1 -2 -2 -2 -1 -0 -1 -1 -0 1 0 -0 0 0 0 0 0 1 1 0 0 0 0 0 0 0 nan
nan 0 0 0 0 0 0 -0 -0 -0 -1 -0 -1 -2 -2 -1 -0 -0 -0 0 -1 -1 -1 -1 -0 0 1 0 -0 -0 1 0 0 0 0 0 0 0 1 0 0 0 nan
nan 0 -0 -0 -0 -0 -0 -0 -0 -0 -1 -1 -0 -0 -1 -0 -0 -0 -0 0 0 0 -0 -1 -0 0 0 0 -0 -0 0 0 0 0 0 0 0 0 0 0 1 1 nan
nan -0 -0 -0 -0 -0 -0 -0 -0 -0 -0 -0 -0 -0 -0 -0 -1 -1 -0 -0 -0 -0 -0 -0 0 0 -0 0 -0 0 0 0 0 0 0 0 0 1 0 0 1 0 nan
nan -0 -0 -0 -0 -1 -1 -1 -1 -1 -0 -0 -0 -0 -0 -0 -1 -1 -1 -1 -0 -0 -1 -0 -0 -0 -0 0 0 -0 -0 0 0 1 1 1 0 0 0 0 0 0 nan
nan -0 -0 -0 -1 -1 -1 -1 -1 -0 -1 -1 -0 -0 -0 -0 -1 -1 -1 -1 -1 -0 -0 -1 -0 -0 -0 -0 -0 -0 -0 -0 0 0 0 1 1 0 0 0 0 0 nan
nan -0 -0 -0 -1 -1 -1 -1 -0 -0 -1 -1 -1 -1 -0 -0 -0 -1 -1 -1 -1 -1 -1 -1 -1 -1 -1 -0 -0 -0 -0 -0 -0 0 0 1 0 0 0 0 0 0 nan
nan -0 -0 -0 -0 -0 -0 -0 -0 -1 -1 -1 -1 -1 -1 -1 -1 -1 -1 -1 -1 -1 -1 -1 -1 -1 -1 -1 -0 -0 0 -0 -0 -0 0 0 0 0 0 0 0 0 nan
nan -0 -0 -0 -0 -0 -0 -0 -0 -0 -1 -1 -1 -1 -1 -1 -1 -1 -1 -1 -1 -1 -1 -1 -1 -1 -1 -1 -1 -1 -0 0 -0 -0 -0 0 0 0 0 0 0 0 nan
nan -0 -0 -0 -0 -0 -0 -0 -0 -0 -0 -1 -1 -0 -0 -0 -0 -0 -1 -1 -1 -1 -1 -1 -1 -1 -1 -1 -1 -1 -1 -0 0 0 -0 -0 0 0 0 0 0 0 nan
nan -0 -0 -0 -0 -0 -0 -0 -0 -0 -0 -0 -1 -1 -1 -0 -0 -0 -0 -1 -0 -0 -1 -1 -1 -1 -1 -1 -1 -1 -1 -1 -0 -0 0 -0 -0 0 0 0 0 0 nan
nan -0 -0 -0 -0 -0 -0 -0 -0 -0 -0 -0 -0 -0 -0 -0 -0 -0 -0 -0 -1 -0 -0 -1 -1 -1 -1 -1 -1 -1 -1 -1 -1 -0 -0 0 0 -0 -0 0 0 0 nan
nan -0 -0 -0 -0 -0 -0 -0 -0 -0 -0 -0 -0 -0 -0 -0 -0 -0 -0 -0 -0 -1 -0 -0 -0 -1 -1 -0 -1 -1 -1 -1 -1 -1 -1 -0 0 -0 -0 0 0 0 nan
nan nan nan nan nan nan nan nan nan nan nan nan nan nan nan nan nan nan nan nan nan nan nan nan nan nan nan nan nan nan nan nan nan nan nan nan nan nan nan nan nan nan nan
Wind_Speed
24 23 23 23 24 29 28 26 26 25 20 10 20 23 7 10 15 18 17 18 18 17 17 18 19 20 23 22 19 17 16 18 20 21 19 17 21 22 22 27 28 28 28
20 22 24 28 29 28 24 25 21 17 19 15 17 10 11 15 18 19 19 19 20 20 20 21 21 22 25 22 20 18 19 19 21 23 21 17 21 21 26 28 27 26 26
22 23 24 27 25 23 23 18 17 16 13 12 10 8 12 19 20 20 20 21 22 22 22 22 24 26 26 21 20 20 21 22 25 26 21 18 21 24 22 22 24 24 24
23 25 28 23 21 19 15 14 16 12 8 7 8 11 19 22 21 19 21 21 21 22 22 25 26 26 26 23 21 22 24 25 23 24 19 20 19 18 21 21 19 18 19
24 23 21 22 18 12 16 15 9 2 5 9 10 21 19 18 19 19 20 21 22 23 24 26 27 27 27 27 27 22 20 21 19 18 20 20 20 19 19 18 20 19 20
17 19 22 18 15 12 14 8 0 5 4 13 22 19 20 20 20 20 21 23 24 25 27 27 27 28 28 29 30 26 22 20 20 21 21 22 22 20 18 18 18 17 19
17 20 18 13 13 11 3 4 5 11 23 16 16 19 20 20 20 21 22 25 28 29 29 29 29 30 29 29 23 22 23 22 23 24 25 23 22 20 18 17 16 17 19
19 16 13 15 11 8 5 8 14 20 14 16 19 20 20 21 22 23 25 27 29 30 30 30 32 33 31 26 24 24 24 24 24 24 26 22 20 23 20 16 16 18 19
17 17 17 13 7 3 14 16 14 14 16 18 19 20 23 25 24 25 27 30 32 33 32 32 32 34 33 26 24 26 25 24 23 23 24 24 24 22 19 15 16 17 21
18 17 10 3 7 13 14 12 13 15 17 19 21 23 25 28 28 28 29 34 36 35 35 33 30 29 29 26 26 27 29 26 22 23 22 23 21 19 17 17 16 17 18
14 8 4 8 10 9 10 11 14 16 20 23 27 30 32 33 35 35 35 37 39 38 37 37 34 29 24 25 25 27 27 23 23 23 23 19 19 18 17 16 17 17 17
8 2 8 9 8 10 12 15 18 22 25 28 32 35 35 37 38 36 33 32 32 34 37 38 37 32 23 24 27 28 28 25 26 27 23 21 19 17 16 16 17 19 20
4 6 4 7 10 13 15 18 20 23 25 28 29 32 34 31 29 30 34 33 28 28 33 35 36 34 25 22 24 23 27 25 26 29 26 22 21 16 17 20 20 21 22
3 4 7 9 11 14 16 18 19 20 22 23 23 27 32 31 29 29 30 32 34 35 32 33 31 31 27 23 23 21 22 23 25 26 30 25 23 22 21 19 19 17 17
4 6 9 11 14 16 17 17 18 18 19 21 21 22 27 30 30 30 31 33 32 33 34 33 34 28 25 25 24 21 20 22 22 23 26 28 27 23 21 20 20 17 16
6 9 11 13 15 16 17 17 17 17 18 17 18 20 22 24 28 29 28 27 26 26 24 25 26 23 23 23 24 21 20 20 21 21 22 23 24 23 19 19 20 16 14
9 10 12 14 15 16 17 18 20 20 19 19 20 20 21 23 25 27 27 26 23 21 17 17 19 20 19 20 21 25 20 22 21 21 21 22 22 20 18 19 15 14 13
10 12 13 14 15 17 18 19 20 21 23 22 23 23 22 23 24 25 26 26 22 17 14 12 12 14 17 18 18 20 20 20 20 20 21 21 21 19 19 19 15 14 12
10 11 12 13 14 15 17 18 19 21 22 23 25 25 25 24 24 25 25 23 22 21 21 19 15 14 14 12 15 16 16 17 19 17 20 20 19 19 21 19 16 15 15
10 11 12 13 14 15 16 18 19 20 21 23 25 27 29 29 28 27 25 25 24 23 22 21 21 18 16 14 13 13 14 14 15 16 19 21 19 19 20 19 18 15 13
11 12 13 14 15 16 17 18 19 20 21 22 23 23 24 25 25 25 24 23 24 24 24 23 22 22 20 18 16 14 14 12 14 13 16 21 19 20 19 19 17 15 14
12 14 15 15 16 17 18 19 20 20 21 22 23 22 22 22 23 23 23 22 23 23 23 23 23 22 21 21 20 18 15 13 12 13 14 16 20 20 20 19 18 15 13
14 14 15 16 16 17 18 19 19 20 21 21 22 22 22 22 22 22 23 23 23 23 22 22 23 22 21 19 18 18 18 17 15 14 14 14 17 23 22 21 18 15 13
15 15 16 16 17 17 18 19 19 19 20 20 21 21 21 21 22 22 23 23 24 24 23 23 22 21 21 20 18 17 17 18 19 18 17 16 15 20 25 23 20 16 14
15 16 16 16 17 17 18 18 19 19 19 20 20 21 21 22 22 23 23 24 25 25 24 22 22 22 21 21 20 19 19 19 19 20 19 18 16 17 24 25 21 17 14
16 17 17 17 17 18 18 19 19 19 20 20 20 21 22 23 23 23 24 25 25 25 24 24 23 22 22 21 20 20 20 20 19 18 20 20 17 18 22 26 21 17 15
Wind_Direction
245 241 233 229 222 226 233 225 224 222 208 249 270 289 248 275 281 280 285 293 293 293 293 287 282 293 305 306 298 286 275 267 269 281 278 282 291 294 296 301 303 303 304
226 220 220 220 225 232 227 218 218 203 285 252 268 259 272 278 279 282 289 291 286 285 288 278 284 292 300 299 292 280 276 271 269 278 279 275 291 293 299 302 303 305 304
220 222 229 231 231 225 212 195 222 244 264 242 238 286 276 292 283 287 286 284 283 282 282 276 284 291 294 290 284 279 276 274 269 271 269 276 290 298 300 302 304 306 305
228 226 228 219 201 191 219 205 227 227 245 240 261 269 295 289 284 282 283 284 283 282 281 280 285 288 290 290 281 278 277 275 272 270 269 276 283 291 297 303 303 302 303
226 218 207 193 178 245 214 216 217 252 231 261 291 295 294 286 285 289 290 290 290 289 286 284 284 285 289 292 287 276 271 268 263 263 270 275 284 289 293 297 299 303 307
219 200 187 179 227 195 190 234 242 221 267 281 296 293 287 292 293 292 295 296 295 292 289 286 284 285 292 292 286 274 263 262 262 264 270 273 281 286 291 294 295 303 310
190 185 192 197 178 180 222 163 202 289 299 300 291 288 293 293 294 298 300 297 295 293 289 288 286 286 293 289 287 267 264 262 264 269 272 272 277 286 290 288 290 293 297
176 183 167 160 165 165 184 267 294 300 299 293 293 294 295 298 301 304 304 301 300 297 291 287 283 286 291 287 277 268 262 270 271 274 273 272 275 287 285 281 285 291 297
170 160 162 168 172 277 303 307 297 298 298 298 299 300 302 302 304 306 308 307 304 301 297 290 288 287 287 284 275 267 267 269 279 276 272 273 278 282 280 276 282 293 298
154 158 160 233 284 298 308 297 302 303 304 303 302 304 305 304 305 305 305 301 298 301 299 295 293 286 282 276 270 267 269 271 278 279 274 274 276 277 279 276 278 282 295
152 166 197 289 293 290 283 292 297 299 299 300 299 300 299 298 298 296 294 293 292 294 291 292 294 295 280 268 265 263 264 277 274 270 270 268 272 271 269 271 272 274 282
162 196 291 288 283 287 295 297 299 301 302 303 303 303 304 306 306 304 301 294 289 295 297 289 284 290 284 265 260 261 266 267 272 260 262 262 268 272 269 269 273 280 284
273 278 264 274 286 294 297 301 304 307 308 310 313 315 317 321 319 318 317 315 303 298 296 296 288 279 277 270 262 267 265 262 274 258 260 262 264 276 270 274 278 282 290
227 256 274 286 296 302 309 313 318 322 326 327 328 326 325 324 324 326 319 313 310 307 305 307 301 288 267 267 270 270 267 267 265 271 263 263 263 270 277 271 275 279 287
266 286 299 308 313 317 322 328 333 337 341 341 340 334 330 328 327 322 320 317 312 302 297 294 294 281 256 265 270 275 272 267 266 270 266 265 265 267 274 265 272 277 284
299 310 316 321 324 327 331 333 336 342 345 350 347 346 342 335 329 323 316 319 326 328 307 295 289 269 259 267 275 279 271 269 271 270 270 265 258 265 264 258 267 271 278
319 323 327 329 330 332 335 338 339 340 342 342 339 335 333 332 335 335 332 321 316 319 333 336 309 300 291 293 295 285 279 283 276 268 268 263 258 263 248 252 256 266 274
328 328 331 332 334 337 340 340 339 339 341 344 343 342 342 336 332 333 335 335 328 326 317 314 310 309 306 310 301 296 293 286 287 270 263 261 254 253 242 249 255 262 270
330 331 333 336 339 340 337 335 334 335 335 336 336 337 338 341 340 337 335 339 340 338 335 329 320 310 295 288 300 301 300 291 288 275 259 258 249 244 241 248 255 265 276
330 332 335 335 335 333 330 330 330 331 331 332 334 334 333 334 338 340 338 336 335 334 331 327 322 322 319 308 295 285 295 299 293 278 260 253 244 241 240 248 253 262 268
328 328 330 330 329 328 327 326 326 327 327 328 329 330 329 330 331 333 333 333 331 329 327 326 322 318 313 311 312 300 295 283 296 296 273 250 243 239 241 243 247 257 261
323 325 325 325 325 324 323 322 322 323 323 323 324 326 327 327 326 327 329 329 329 328 325 321 317 316 313 310 305 304 302 296 281 290 304 265 243 235 237 237 242 251 254
322 322 322 322 322 322 321 320 320 320 320 321 322 324 327 327 327 327 326 326 326 327 325 320 316 311 307 306 304 302 295 291 283 274 269 277 254 235 232 234 237 244 246
321 321 321 320 320 320 319 319 319 320 320 320 322 324 325 325 326 326 326 325 325 325 325 322 318 314 309 304 301 298 295 286 281 275 268 260 260 243 233 229 230 236 235
322 322 321 321 320 319 319 319 318 319 319 321 323 324 324 324 325 326 326 325 325 325 325 323 320 315 311 307 302 299 296 288 285 276 263 258 247 244 231 223 223 227 226
322 321 321 321 321 320 319 319 320 321 322 323 324 324 324 325 326 326 327 327 327 327 327 326 322 318 313 308 302 296 294 294 290 276 260 251 245 235 223 215 216 217 216
Height
1508 1511 1514 1518 1522 1523 1525 1529 1532 1535 1538 1541 1544 1544 1544 1545 1544 1542 1542 1540 1539 1538 1537 1535 1534 1531 1528 1525 1523 1521 1519 1517 1514 1513 1510 1507 1505 1503 1500 1497 1493 1489 1485
1504 1506 1509 1512 1515 1518 1521 1524 1529 1533 1534 1536 1536 1538 1540 1540 1539 1538 1537 1535 1533 1532 1531 1529 1527 1525 1522 1519 1517 1515 1513 1511 1508 1506 1505 1502 1499 1497 1494 1490 1486 1483 1479
1500 1504 1507 1510 1513 1515 1519 1521 1526 1530 1531 1532 1532 1533 1535 1535 1533 1532 1530 1529 1527 1526 1524 1522 1521 1518 1515 1513 1510 1508 1506 1503 1501 1498 1497 1495 1492 1490 1487 1484 1479 1476 1472
1497 1501 1504 1507 1511 1515 1520 1520 1523 1524 1527 1531 1528 1530 1531 1529 1527 1526 1524 1523 1521 1519 1517 1515 1513 1511 1508 1505 1503 1501 1498 1495 1494 1491 1490 1489 1488 1485 1481 1477 1474 1472 1467
1494 1497 1502 1507 1511 1514 1514 1521 1521 1520 1525 1527 1527 1527 1525 1523 1521 1520 1518 1516 1514 1512 1510 1508 1505 1503 1500 1497 1494 1492 1491 1489 1487 1485 1485 1484 1482 1480 1477 1473 1469 1466 1462
1493 1497 1502 1507 1507 1510 1516 1518 1517 1521 1522 1522 1521 1520 1519 1517 1516 1514 1512 1510 1507 1505 1502 1500 1497 1495 1492 1489 1485 1483 1483 1482 1481 1480 1479 1477 1475 1474 1470 1467 1464 1461 1457
1492 1497 1501 1504 1507 1511 1513 1516 1516 1519 1518 1515 1515 1514 1513 1511 1510 1508 1506 1503 1500 1497 1494 1492 1489 1486 1483 1480 1477 1476 1474 1474 1473 1472 1470 1470 1468 1466 1464 1461 1460 1457 1454
1491 1496 1500 1503 1507 1509 1511 1513 1514 1513 1511 1510 1510 1508 1507 1506 1504 1502 1499 1496 1492 1488 1485 1483 1480 1477 1474 1472 1469 1468 1467 1466 1465 1464 1463 1462 1461 1459 1457 1455 1454 1451 1448
1490 1494 1499 1502 1504 1506 1509 1508 1508 1507 1506 1505 1504 1502 1501 1499 1498 1495 1492 1487 1483 1480 1476 1473 1471 1467 1465 1464 1461 1459 1459 1458 1458 1457 1456 1455 1454 1452 1451 1450 1449 1447 1443
1491 1495 1498 1500 1502 1503 1502 1503 1503 1501 1500 1499 1498 1497 1495 1492 1490 1488 1485 1479 1474 1470 1466 1463 1461 1458 1455 1455 1453 1452 1451 1451 1451 1450 1449 1448 1447 1445 1444 1443 1443 1441 1439
1492 1495 1496 1497 1498 1498 1499 1498 1498 1497 1495 1494 1491 1489 1487 1484 1481 1478 1475 1470 1464 1460 1455 1451 1449 1448 1446 1445 1445 1443 1443 1445 1444 1443 1442 1442 1441 1439 1439 1438 1436 1435 1433
1491 1492 1494 1494 1494 1495 1495 1494 1493 1491 1489 1486 1482 1479 1476 1472 1468 1465 1462 1459 1455 1449 1444 1442 1439 1438 1437 1435 1435 1434 1435 1436 1435 1435 1435 1434 1434 1434 1433 1432 1431 1429 1427
1489 1490 1491 1491 1492 1491 1491 1489 1488 1485 1482 1478 1474 1468 1463 1461 1457 1453 1448 1445 1443 1439 1435 1432 1429 1428 1429 1427 1427 1426 1427 1427 1427 1426 1426 1427 1427 1427 1427 1426 1425 1423 1421
1487 1488 1489 1489 1488 1487 1485 1483 1481 1478 1475 1471 1467 1461 1456 1453 1449 1445 1441 1436 1432 1428 1425 1422 1420 1418 1419 1420 1420 1419 1419 1419 1419 1419 1419 1420 1420 1420 1420 1420 1419 1418 1415
1485 1486 1485 1484 1483 1482 1480 1477 1475 1473 1470 1466 1462 1458 1451 1446 1443 1440 1435 1428 1424 1420 1416 1413 1411 1410 1411 1412 1412 1412 1412 1412 1411 1411 1411 1411 1412 1413 1413 1413 1413 1412 1410
1482 1482 1481 1480 1478 1476 1474 1473 1470 1468 1465 1462 1459 1454 1450 1446 1439 1433 1428 1424 1419 1413 1408 1405 1404 1403 1404 1405 1405 1405 1405 1404 1404 1404 1404 1404 1405 1406 1406 1407 1407 1406 1405
1478 1477 1476 1475 1473 1471 1469 1466 1464 1461 1459 1456 1453 1449 1445 1441 1435 1429 1423 1418 1414 1410 1407 1404 1401 1400 1400 1399 1399 1397 1397 1397 1397 1397 1396 1397 1398 1399 1400 1401 1402 1401 1400
1474 1473 1471 1470 1468 1466 1464 1461 1458 1455 1451 1449 1446 1443 1439 1435 1430 1424 1419 1415 1410 1407 1404 1402 1400 1399 1397 1395 1393 1392 1391 1390 1389 1389 1390 1390 1391 1393 1394 1395 1396 1396 1395
1470 1469 1467 1465 1463 1461 1459 1457 1454 1450 1446 1443 1440 1437 1433 1429 1425 1421 1416 1412 1408 1405 1402 1399 1396 1393 1391 1389 1388 1386 1385 1383 1383 1383 1383 1384 1385 1387 1388 1390 1391 1390 1390
1466 1465 1463 1461 1459 1457 1455 1453 1449 1446 1443 1439 1435 1430 1426 1423 1419 1415 1412 1409 1405 1402 1399 1396 1393 1390 1387 1384 1382 1380 1380 1378 1377 1376 1376 1378 1379 1381 1383 1384 1385 1386 1385
1463 1461 1460 1458 1455 1453 1451 1448 1445 1442 1439 1435 1432 1428 1425 1420 1416 1413 1409 1405 1401 1398 1394 1391 1388 1385 1383 1380 1377 1375 1374 1372 1371 1371 1371 1372 1373 1375 1377 1379 1380 1381 1381
1459 1457 1455 1453 1451 1449 1447 1444 1441 1438 1435 1431 1428 1425 1421 1417 1414 1409 1406 1402 1398 1394 1391 1387 1384 1381 1378 1375 1373 1371 1369 1367 1366 1366 1366 1366 1368 1370 1372 1373 1375 1376 1376
1455 1453 1451 1449 1447 1444 1442 1439 1436 1433 1430 1427 1423 1419 1416 1413 1409 1406 1401 1397 1393 1390 1387 1383 1379 1376 1373 1371 1368 1366 1364 1362 1361 1361 1360 1361 1362 1364 1366 1368 1370 1371 1372
1451 1449 1447 1444 1442 1440 1437 1435 1432 1429 1425 1422 1418 1415 1411 1408 1404 1401 1397 1392 1389 1385 1382 1378 1374 1371 1367 1365 1362 1361 1359 1357 1355 1355 1354 1354 1356 1357 1360 1362 1365 1367 1368
1446 1444 1442 1440 1437 1435 1432 1430 1427 1424 1421 1417 1413 1410 1406 1403 1399 1396 1392 1387 1384 1380 1376 1373 1369 1365 1361 1359 1356 1354 1352 1350 1349 1348 1348 1349 1349 1351 1353 1357 1360 1362 1364
1441 1439 1437 1435 1433 1430 1427 1425 1422 1418 1415 1412 1408 1404 1401 1398 1394 1390 1386 1382 1378 1374 1371 1367 1363 1359 1355 1351 1349 1347 1345 1343 1341 1341 1340 1341 1343 1344 1347 1351 1355 1358 1361